Theta_e
318 317 316 316 316 317 317 318 318 319 317 318 318 317 316 315 315 315 314 313 311 310 309 307 305 304 303 302 303 304 304 303 301 300 298 296 296 294 293 291 290 289 289 289
320 317 316 317 316 316 316 316 317 317 317 317 316 316 315 314 314 314 312 310 309 308 305 304 303 301 300 300 300 302 302 301 301 300 298 296 295 293 292 290 290 289 289 289
323 318 318 322 320 317 317 317 317 319 317 317 316 315 314 314 313 311 309 308 306 305 304 302 300 299 298 298 298 300 300 300 300 299 297 296 295 293 292 290 289 289 289 289
321 318 325 319 316 317 316 316 316 316 317 316 315 313 313 312 310 308 307 306 304 302 301 300 299 298 297 296 296 297 297 298 298 298 296 295 295 293 291 290 289 289 289 289
322 319 317 317 317 316 316 316 316 318 316 315 313 312 311 309 307 306 305 303 301 300 300 299 297 296 296 295 296 296 296 298 297 295 295 294 294 293 291 289 289 289 289 288
317 318 318 319 316 315 315 318 317 316 314 312 311 312 310 308 306 304 302 301 300 299 298 297 296 295 295 295 294 295 296 296 295 294 294 294 293 292 289 289 289 289 288 288
318 317 317 315 315 314 317 319 316 314 312 311 311 309 308 306 304 301 301 300 299 297 296 296 295 295 294 294 294 295 295 294 294 294 293 292 292 290 289 289 289 288 288 287
318 317 318 315 315 316 317 315 314 312 311 310 309 309 305 304 301 301 300 299 297 297 296 295 295 294 294 294 294 294 294 294 293 293 292 292 290 290 289 289 288 288 287 285
319 319 316 315 315 315 315 314 312 310 309 308 308 306 304 301 301 300 299 298 297 296 295 295 295 294 294 294 293 293 292 292 292 292 291 290 290 289 289 288 288 287 285 283
319 317 315 315 314 314 313 312 311 310 308 308 305 303 301 301 300 299 298 297 296 295 295 295 294 294 294 293 293 292 291 291 291 290 290 289 289 289 288 288 287 286 284 282
317 316 315 315 314 313 312 310 310 309 308 305 303 302 301 299 298 298 297 296 295 295 294 294 294 294 293 293 291 291 290 290 289 289 290 289 289 288 288 287 286 285 283 282
319 316 316 315 312 310 310 310 309 308 304 302 302 300 298 298 297 296 295 294 294 294 294 294 294 294 293 292 290 290 289 288 288 289 288 288 288 288 287 286 285 284 284 283
314 315 314 313 311 310 308 307 305 303 302 301 299 297 297 295 295 294 294 294 294 294 294 294 293 293 292 292 290 289 288 288 287 287 289 288 288 287 286 285 284 284 284 282
313 313 312 310 310 309 305 304 302 301 299 297 297 296 295 294 294 293 293 293 293 293 293 293 291 293 292 291 290 289 289 288 287 287 287 287 286 285 285 284 284 284 283 283
310 310 309 309 308 305 303 301 299 298 297 296 295 294 294 293 293 292 291 291 292 291 291 291 291 291 290 290 290 289 289 288 287 285 286 286 286 285 284 284 284 283 283 283
309 308 307 305 303 302 300 298 297 297 296 294 293 292 293 291 291 291 291 290 290 290 290 290 290 291 290 289 289 288 288 288 287 285 286 285 285 285 284 284 283 283 283 283
308 306 304 302 300 298 297 297 297 296 292 291 291 291 291 291 290 291 291 290 290 289 290 290 290 290 290 288 288 288 288 288 286 285 285 285 285 284 284 284 283 283 283 282
306 305 302 298 297 297 296 296 294 292 292 291 291 291 291 290 291 291 291 290 290 289 289 291 291 290 289 289 288 287 287 285 285 285 285 285 284 284 283 283 283 283 282 282
300 298 297 296 296 295 294 291 291 292 292 291 292 291 291 290 290 291 290 290 290 290 290 290 290 290 289 289 286 285 285 285 285 284 285 285 284 284 283 283 283 283 282 282
297 296 295 294 292 291 290 291 292 292 292 292 292 291 291 290 290 290 288 289 290 290 290 290 291 289 289 288 286 285 284 285 284 284 284 285 284 284 284 283 283 283 283 282
294 294 294 293 291 290 290 292 292 292 292 292 292 291 291 290 290 289 289 289 290 290 291 290 290 289 289 288 287 286 285 284 284 284 284 284 284 284 283 283 283 283 283 282
294 293 291 290 290 291 291 292 292 292 292 291 291 291 291 290 289 289 289 289 290 290 290 290 290 289 289 288 287 286 285 284 284 284 284 284 284 284 284 283 283 283 282 282
293 291 291 291 291 291 291 291 292 292 291 292 292 292 290 290 290 289 288 289 289 291 289 289 289 289 288 288 286 285 285 285 284 283 283 283 283 283 283 283 283 282 281 281
292 291 291 291 291 292 292 292 293 293 293 293 293 292 291 290 289 289 288 288 289 288 289 289 289 289 289 288 287 286 286 285 284 284 283 284 283 283 283 282 282 282 281 281
291 291 291 292 293 293 293 294 294 293 292 292 292 291 290 290 289 288 288 288 288 288 289 289 289 289 288 289 288 287 287 285 284 283 283 283 283 283 283 283 282 282 281 281
293 293 293 293 293 293 293 293 292 292 292 292 291 290 289 289 288 288 288 288 287 288 288 288 288 288 289 289 288 288 287 286 285 284 283 283 283 283 283 283 283 282 282 281
293 294 294 294 294 293 292 292 292 292 292 291 290 289 288 287 287 287 287 287 287 288 288 289 288 289 288 288 288 288 287 287 285 284 283 283 283 283 283 282 282 282 282 281
Wind_Speed
8 9 9 10 11 11 12 10 8 10 13 9 10 10 19 17 16 14 12 16 18 20 22 21 20 21 23 24 27 28 25 22 27 23 19 13 15 16 19 21 21 21 23 23
3 4 9 12 14 14 15 14 9 12 13 7 18 15 16 14 15 15 16 17 19 21 19 19 22 24 27 29 31 22 21 27 26 25 21 14 14 15 17 21 20 24 23 25
2 9 9 2 4 5 4 6 9 5 8 15 10 12 16 11 11 15 16 19 20 18 19 21 23 26 29 32 33 33 30 27 23 23 20 14 14 15 17 21 24 24 26 24
2 5 3 3 12 12 9 7 7 7 8 8 12 16 17 8 11 15 15 16 17 19 22 21 27 27 30 31 34 36 35 31 25 25 16 12 13 17 17 22 24 27 23 22
1 3 9 11 4 6 5 10 10 7 8 12 17 14 6 12 13 13 15 17 20 22 23 27 26 28 32 34 34 35 37 26 26 16 14 16 11 18 18 25 24 21 23 24
2 2 3 2 7 6 9 8 8 10 11 11 16 6 8 20 19 18 19 20 23 24 26 26 27 31 31 32 33 35 31 33 20 12 15 14 14 15 20 21 21 26 28 30
4 4 6 9 5 4 3 2 5 5 10 10 7 7 14 17 15 18 20 22 26 26 26 24 28 29 29 31 33 27 24 19 16 15 15 14 14 18 20 21 24 23 26 30
3 3 6 2 2 1 5 10 2 3 5 8 11 11 15 14 17 19 22 25 26 28 26 28 29 28 27 28 30 25 27 22 21 18 15 15 16 17 21 22 18 20 27 25
9 5 10 3 7 10 10 7 3 8 7 9 10 13 14 16 18 21 24 26 28 27 29 31 27 26 27 27 26 24 23 23 19 16 15 15 19 22 19 16 19 26 26 28
2 7 12 10 3 6 6 2 5 6 8 10 11 12 15 18 22 24 25 28 26 30 31 27 28 29 26 25 24 23 21 18 18 16 17 19 14 17 17 18 24 25 25 26
9 15 15 3 5 7 1 7 9 7 9 8 11 14 18 22 24 26 27 25 30 29 29 29 31 29 25 27 29 18 16 14 14 15 13 16 15 16 16 19 23 22 23 23
8 8 3 3 4 4 7 6 6 5 6 9 12 17 20 22 25 26 28 30 29 29 31 31 29 28 29 22 19 20 18 15 15 14 13 16 12 15 17 20 20 22 21 23
14 0 3 2 7 6 3 1 1 2 7 11 15 17 21 23 24 27 27 28 29 32 30 29 28 27 24 20 20 18 17 17 14 13 11 12 13 17 20 17 18 20 21 24
1 3 3 6 4 5 3 1 3 5 9 12 16 17 19 21 24 24 27 31 30 30 29 29 26 21 19 16 11 14 18 18 15 11 14 14 15 15 15 16 17 16 20 22
5 2 5 2 6 3 2 2 5 9 12 15 15 17 18 20 24 30 32 31 29 34 36 28 27 25 21 17 18 15 14 20 21 16 11 12 13 14 14 14 15 15 15 15
5 5 6 5 3 1 2 5 8 11 12 14 17 21 17 27 30 32 31 33 34 38 33 27 25 25 16 11 12 12 11 15 18 15 10 11 12 14 14 14 14 14 15 18
9 11 7 6 2 3 5 7 9 11 19 19 22 23 26 29 32 32 34 34 32 32 27 25 24 21 13 13 13 9 13 17 20 14 11 12 14 13 13 14 14 14 14 19
10 9 7 3 2 5 8 10 16 18 19 22 24 25 27 30 32 34 36 34 33 33 27 22 19 16 12 11 13 15 19 18 12 13 13 14 13 15 13 12 14 14 16 16
9 7 3 1 4 10 15 20 20 19 22 25 25 26 29 32 33 34 35 31 29 28 24 20 19 14 12 14 14 14 11 13 13 13 12 14 16 13 13 12 13 16 15 15
6 2 3 8 14 18 21 20 19 21 24 25 25 28 31 33 33 33 30 29 25 22 26 22 20 13 13 14 14 11 10 13 13 13 11 13 15 13 13 14 13 14 15 16
3 7 13 19 23 22 20 19 20 25 26 24 25 28 32 34 31 26 28 29 22 19 21 22 19 14 14 11 15 16 13 12 14 12 11 12 14 16 14 14 13 13 16 16
10 16 22 23 23 23 20 20 23 25 24 23 25 29 31 30 26 26 25 25 25 23 26 25 16 14 15 16 17 18 18 16 14 12 13 13 14 14 16 15 14 14 14 16
18 23 21 21 21 22 24 25 24 20 20 23 25 28 26 25 26 27 33 23 27 24 29 18 15 16 16 16 17 18 18 16 15 14 13 14 15 15 16 16 15 15 15 15
23 22 22 21 22 24 25 21 16 18 21 23 25 27 28 29 29 28 28 29 24 24 23 15 16 18 18 19 19 19 18 16 17 18 17 17 17 18 19 17 16 15 15 15
22 22 22 20 19 22 22 20 19 21 21 24 26 30 25 25 27 29 26 27 25 22 21 18 18 21 22 23 22 21 21 19 19 19 23 23 22 20 20 20 19 17 16 17
19 21 21 21 23 23 23 22 23 24 24 28 31 32 27 24 25 28 28 27 26 22 21 20 21 22 23 25 26 26 25 22 21 22 22 21 21 20 20 19 19 18 18 18
19 18 19 20 21 23 23 24 25 26 28 28 32 31 27 28 25 24 25 26 26 24 22 22 23 25 26 29 31 30 28 26 24 24 23 23 22 21 21 20 20 19 18 18
Wind_Direction
321 314 304 299 291 285 272 255 242 261 266 318 16 15 46 26 7 354 358 352 342 333 330 327 326 324 321 321 320 306 305 289 304 288 281 288 284 304 312 314 314 312 310 309
264 347 348 307 293 291 282 272 290 315 305 57 49 29 19 6 350 2 353 342 334 331 331 330 330 330 326 322 320 309 301 293 298 289 287 282 300 312 312 314 315 314 309 308
287 346 314 319 262 275 329 310 316 298 289 39 34 8 350 352 359 349 337 330 330 327 331 334 332 328 327 327 320 319 308 302 299 284 293 288 302 310 308 312 314 313 311 309
301 311 10 40 319 292 316 281 284 318 44 56 16 352 347 45 10 340 332 329 323 330 329 330 326 327 329 327 324 318 317 311 300 296 302 289 298 298 314 311 314 313 313 309
336 305 296 302 56 30 7 308 320 33 32 5 347 340 4 36 354 340 328 321 328 329 334 329 332 333 331 327 324 322 319 308 312 322 293 291 297 296 308 312 317 311 309 301
126 241 255 333 39 35 321 277 57 29 10 349 339 339 336 341 336 330 327 325 327 332 328 331 331 332 330 329 328 329 323 319 295 313 305 314 310 313 309 316 318 314 312 313
202 245 278 270 325 342 239 35 14 12 349 342 332 324 309 318 323 319 319 325 327 327 332 331 332 329 328 327 328 329 337 322 301 313 300 322 315 305 311 318 319 312 310 317
197 234 255 339 332 202 8 338 63 337 314 305 308 300 314 321 318 317 323 325 325 329 329 330 326 323 324 324 324 321 324 318 317 318 319 313 307 302 315 320 311 309 316 322
184 212 226 5 222 262 275 258 247 292 302 302 297 304 320 316 314 320 323 321 326 326 326 321 320 324 323 324 322 322 321 320 312 311 314 300 301 315 317 306 305 314 317 323
202 255 276 297 305 135 169 192 299 269 282 283 300 320 308 312 321 326 325 324 324 327 319 322 327 327 322 320 310 309 314 310 314 311 307 314 319 317 310 306 313 316 323 329
286 293 297 34 114 145 292 298 272 275 268 305 312 306 319 328 326 326 322 323 326 320 321 322 322 320 317 313 314 313 305 304 315 314 304 309 313 312 319 322 320 319 326 332
263 279 269 144 156 279 279 279 271 261 309 307 310 323 324 330 330 329 326 325 322 319 319 318 316 313 317 308 314 302 304 314 306 313 313 316 312 300 305 310 316 323 333 338
312 261 150 193 288 273 234 353 323 311 298 318 322 330 330 328 324 319 321 320 318 315 313 309 306 309 311 296 297 307 311 316 316 309 306 313 303 299 308 315 320 330 332 337
157 157 231 275 240 180 163 231 276 297 319 325 327 325 322 319 318 319 317 313 314 312 307 309 315 310 310 302 279 288 299 312 309 299 299 296 301 315 319 321 327 333 327 334
151 207 242 249 184 177 188 290 317 313 325 325 317 322 315 317 314 315 319 319 314 311 309 306 304 297 297 284 285 296 307 301 312 311 296 299 311 315 316 314 319 324 325 324
187 226 180 173 161 192 276 299 311 320 321 315 313 312 310 316 320 320 322 322 323 322 320 311 306 313 297 270 274 287 296 291 299 310 297 303 304 308 310 312 315 320 323 311
192 171 164 151 216 275 299 305 308 298 308 313 316 317 316 318 319 321 322 325 323 326 317 309 308 307 278 265 285 289 278 274 291 298 298 290 299 306 305 304 308 315 318 313
162 164 157 178 262 300 298 291 295 304 310 315 316 312 314 319 320 320 321 322 319 323 323 319 314 302 278 270 268 263 263 283 292 292 291 294 295 298 306 307 309 312 315 316
136 139 141 277 298 291 302 306 307 305 309 314 310 311 314 316 317 316 318 320 318 322 327 321 307 289 281 291 290 282 281 285 293 292 287 287 295 300 298 300 300 302 313 316
132 137 252 302 310 312 310 307 302 302 310 312 306 308 313 315 314 315 320 318 315 319 318 317 305 280 280 294 298 298 275 272 289 293 285 282 292 302 294 300 302 306 311 313
257 301 311 314 313 310 306 304 302 306 310 309 306 308 309 310 313 325 319 313 327 320 317 314 299 271 273 294 300 303 304 289 292 288 283 280 285 293 294 296 297 299 301 305
301 314 315 310 307 306 306 302 304 307 308 310 312 313 316 314 320 314 315 310 318 310 314 310 292 264 265 253 263 274 282 278 278 271 274 275 278 281 285 291 291 293 298 300
301 309 307 307 306 303 302 304 306 305 306 315 317 321 322 316 313 312 316 314 308 309 312 298 266 264 269 272 274 277 285 278 274 274 267 266 271 276 282 285 286 289 293 298
298 305 307 306 302 300 304 313 311 309 311 317 311 317 316 314 309 309 314 311 314 313 310 285 259 264 266 271 275 279 287 285 275 273 271 268 270 275 281 285 286 289 290 293
297 303 305 308 305 303 305 305 300 296 305 307 303 309 313 307 303 309 314 319 317 314 309 294 272 265 269 269 272 279 283 285 278 272 262 262 258 258 264 274 279 285 288 290
305 303 301 295 296 298 300 297 293 299 301 304 312 319 319 311 311 311 312 314 319 309 305 298 288 284 277 271 270 275 276 281 280 282 273 266 261 261 262 264 270 276 282 287
300 299 297 294 295 295 297 294 289 290 299 308 313 321 319 316 318 317 314 313 316 319 303 297 293 288 284 280 277 276 274 274 279 283 274 267 263 261 263 264 267 272 277 284